Preview of NWS' New Version of Forecast
This preview is not operational and should not be used for support decisions.

Regional Weather Roundup (RWR)

Issued by Key West, FL (KEY)

                            
000
ASUS42 KKEY 200910
RWRKEY

FLORIDA KEYS REGIONAL WEATHER ROUNDUP
NATIONAL WEATHER SERVICE KEY WEST FLORIDA
400 AM EST WED FEB 20 2019

...SOUTH FLORIDA AND THE KEYS...
  
CITY           SKY/WX    TMP DP  RH WIND       PRES   REMARKS
FORT MYERS     CLOUDY    72  69  90 E6        30.06F                  
SW REGIONAL AP CLOUDY    71  69  93 E7        30.07F                  
NAPLES         CLOUDY    74  71  91 SE8       30.06S                  
MIAMI          LGT RAIN  76  73  91 SE13      30.09F                  
WEST KENDALL   MOCLDY    76  71  85 E10       30.08S                  
HOMESTEAD      CLOUDY    77  72  83 E14       30.07S                  
MARATHON       FAIR      80  72  76 E12G21    30.04F                  
KEY WEST INTL  FAIR      78  71  79 SE17      30.05F                  

...INTERNATIONAL WEATHER...
  
CITY           SKY/WX    TMP DP  RH WIND       PRES   REMARKS
NASSAU         PTCLDY    75  70  83 E14       30.13F                  
HAVANA         PTCLDY    73  70  88 E5        30.00F                  
VARADERO         N/A     72  70  94 E9        30.03S                  
CANCUN         PTCLDY    77  72  83 SE13      29.93F                  
COZUMEL        PTCLDY    75  72  88 SE9       29.91F                  
KINGSTON       PTCLDY    79  63  57 E16       29.94F                  

ADJACENT COASTAL WATERS...
  
STATION/POSITION TIME  SKY/WX   TEMP    WIND        PRES    WAVE
                                AIR SEA DIR/SP/G            HT/PER
                 (UTC)          (F)     (DEG/KT/KT) (MB)    (FT/S)
PULASKI SHOAL LI 0900            78     130/ 17/ 19 1016.7F
SAND KEY         0850            77                 1017.0F
SOMBRERO KEY     0850            78                 1016.8F
LONG KEY         0900            78 78  110/ 15/ 17 1017.4F
MOLASSES REEF    0900            78 78  130/ 21/ 23 1018.3F
FOWEY ROCKS      0900            77 77  110/ 22/ 24 1018.9F
Buoy 42097       0830               75                N/A     4/ 8

$$